JTM125 ZSSS-VMMC

Flight info

Callsign JTM125
Flight time 2h 27m
Altitude 36100
Route ADBAS W135 TUPGA A599 PLT W19 NOMAR W18 NLG
Aircraft B738/M-SDE2FGHIRWY/L

Departure

Time 2026-04-21 10:23
Airport Shanghai Hongqiao International Airport (ZSSS)

Arrival

Time 2026-04-21 12:50
Airport Macau International Airport (VMMC)
Time Latitude Longitude Altitude Speed Heading
2026-04-21 10:01 31.19820 121.34122 18 ft 0 kts 177°
2026-04-21 10:16 31.19831 121.34121 18 ft 3 kts 177°
2026-04-21 10:16 31.19869 121.34119 17 ft 5 kts 177°
2026-04-21 10:17 31.19898 121.34117 17 ft 2 kts 182°
2026-04-21 10:17 31.19903 121.34120 17 ft 0 kts 262°
2026-04-21 10:17 31.19902 121.34103 17 ft 5 kts 267°
2026-04-21 10:17 31.19899 121.34030 17 ft 11 kts 265°
2026-04-21 10:18 31.19891 121.33910 16 ft 17 kts 279°
2026-04-21 10:18 31.20007 121.33868 15 ft 20 kts
2026-04-21 10:18 31.20155 121.33864 12 ft 21 kts 358°
2026-04-21 10:18 31.20303 121.33855 15 ft 20 kts 357°
2026-04-21 10:19 31.20444 121.33848 15 ft 20 kts 357°
2026-04-21 10:19 31.20583 121.33840 17 ft 19 kts 357°
2026-04-21 10:19 31.20713 121.33833 18 ft 18 kts 358°
2026-04-21 10:19 31.20843 121.33826 18 ft 18 kts 357°
2026-04-21 10:20 31.20971 121.33819 18 ft 18 kts 357°
2026-04-21 10:20 31.21100 121.33810 18 ft 18 kts 355°
2026-04-21 10:20 31.21205 121.33750 18 ft 17 kts 300°
2026-04-21 10:20 31.21223 121.33678 18 ft 0 kts 272°
2026-04-21 10:21 31.21223 121.33645 18 ft 9 kts 269°
2026-04-21 10:22 31.21165 121.33558 18 ft 19 kts 187°
2026-04-21 10:22 31.20982 121.33564 18 ft 42 kts 178°
2026-04-21 10:22 31.20458 121.33594 17 ft 105 kts 178°
2026-04-21 10:22 31.19534 121.33638 50 ft 151 kts 175°
2026-04-21 10:23 31.18415 121.33680 421 ft 168 kts 174°
2026-04-21 10:23 31.17261 121.33748 1187 ft 164 kts 170°
2026-04-21 10:23 31.16188 121.33844 2032 ft 154 kts 168°
2026-04-21 10:23 31.15057 121.33954 2398 ft 176 kts 176°
2026-04-21 10:24 31.13808 121.33556 2925 ft 192 kts 197°
2026-04-21 10:24 31.12727 121.32820 3973 ft 179 kts 210°
2026-04-21 10:24 31.11816 121.31680 4403 ft 206 kts 232°
2026-04-21 10:24 31.11269 121.30126 5261 ft 207 kts 247°
2026-04-21 10:25 31.10911 121.28565 6050 ft 204 kts 249°
2026-04-21 10:25 31.10553 121.27024 6831 ft 199 kts 248°
2026-04-21 10:25 31.10180 121.25455 7486 ft 207 kts 251°
2026-04-21 10:25 31.09842 121.23804 8126 ft 215 kts 252°
2026-04-21 10:26 31.09391 121.22098 8679 ft 228 kts 247°
2026-04-21 10:26 31.08845 121.20327 9362 ft 238 kts 250°
2026-04-21 10:26 31.08312 121.18466 9965 ft 249 kts 251°
2026-04-21 10:26 31.07792 121.16532 10579 ft 259 kts 252°
2026-04-21 10:27 31.07255 121.14481 11190 ft 270 kts 253°
2026-04-21 10:27 31.06727 121.12357 11940 ft 275 kts 253°
2026-04-21 10:27 31.06212 121.10240 12771 ft 277 kts 255°
2026-04-21 10:27 31.05687 121.08085 13609 ft 279 kts 256°
2026-04-21 10:28 31.05155 121.05911 14334 ft 284 kts 254°
2026-04-21 10:28 31.04608 121.03690 15099 ft 288 kts 255°
2026-04-21 10:28 31.04048 121.01431 15892 ft 290 kts 255°
2026-04-21 10:28 31.03503 120.99204 16654 ft 293 kts 255°
2026-04-21 10:29 31.02940 120.96925 17338 ft 297 kts 255°
2026-04-21 10:29 31.02360 120.94595 18009 ft 301 kts 255°
2026-04-21 10:29 31.01776 120.92239 18692 ft 305 kts 255°
2026-04-21 10:29 31.01192 120.89866 19338 ft 309 kts 255°
2026-04-21 10:30 31.00602 120.87463 19935 ft 314 kts 255°
2026-04-21 10:30 30.99985 120.84953 20185 ft 331 kts 255°
2026-04-21 10:30 30.99342 120.82346 20543 ft 343 kts 255°
2026-04-21 10:30 30.98614 120.79633 20873 ft 356 kts 251°
2026-04-21 10:31 30.97600 120.76977 21086 ft 372 kts 242°
2026-04-21 10:31 30.96073 120.74425 21369 ft 387 kts 232°
2026-04-21 10:31 30.94126 120.72184 21493 ft 407 kts 223°
2026-04-21 10:31 30.91826 120.70171 21786 ft 419 kts 218°
2026-04-21 10:32 30.89375 120.68272 22264 ft 425 kts 216°
2026-04-21 10:32 30.86882 120.66429 22739 ft 429 kts 216°
2026-04-21 10:32 30.84375 120.64594 23377 ft 430 kts 216°
2026-04-21 10:32 30.81833 120.62725 23943 ft 432 kts 216°
2026-04-21 10:33 30.79293 120.60839 24469 ft 436 kts 217°
2026-04-21 10:33 30.76718 120.58909 24981 ft 440 kts 217°
2026-04-21 10:33 30.74155 120.56975 25492 ft 443 kts 217°
2026-04-21 10:33 30.71595 120.55037 26222 ft 441 kts 217°
2026-04-21 10:34 30.69039 120.53101 27020 ft 437 kts 217°
2026-04-21 10:34 30.66509 120.51180 27792 ft 433 kts 217°
2026-04-21 10:34 30.63982 120.49261 28510 ft 431 kts 218°
2026-04-21 10:34 30.61498 120.47372 29215 ft 428 kts 218°
2026-04-21 10:35 30.59008 120.45478 29777 ft 429 kts 218°
2026-04-21 10:35 30.56520 120.43584 30339 ft 429 kts 218°
2026-04-21 10:35 30.54041 120.41700 30973 ft 427 kts 218°
2026-04-21 10:35 30.51591 120.39840 31536 ft 426 kts 218°
2026-04-21 10:36 30.49085 120.37937 32050 ft 426 kts 218°
2026-04-21 10:36 30.46621 120.36066 32552 ft 426 kts 219°
2026-04-21 10:36 30.44105 120.34157 33041 ft 426 kts 218°
2026-04-21 10:36 30.41647 120.32295 33655 ft 424 kts 218°
2026-04-21 10:37 30.39160 120.30412 34237 ft 423 kts 219°
2026-04-21 10:37 30.36675 120.28532 34910 ft 419 kts 219°
2026-04-21 10:37 30.34252 120.26702 35550 ft 416 kts 219°
2026-04-21 10:37 30.31809 120.24831 36016 ft 415 kts 220°
2026-04-21 10:38 30.29397 120.22942 36045 ft 419 kts 220°
2026-04-21 10:38 30.24602 120.19154 36040 ft 413 kts 221°
2026-04-21 10:39 30.19834 120.15391 36036 ft 415 kts 220°
2026-04-21 10:39 30.15062 120.11642 36038 ft 415 kts 220°
2026-04-21 10:40 30.10239 120.07861 36025 ft 418 kts 220°
2026-04-21 10:40 30.05467 120.04132 36009 ft 413 kts 220°
2026-04-21 10:41 30.00670 120.00385 36009 ft 418 kts 220°
2026-04-21 10:41 29.95831 119.96616 36011 ft 416 kts 220°
2026-04-21 10:42 29.91024 119.92873 36018 ft 417 kts 220°
2026-04-21 10:42 29.86239 119.89150 36033 ft 417 kts 220°
2026-04-21 10:43 29.81441 119.85424 36030 ft 414 kts 220°
2026-04-21 10:43 29.76628 119.81688 36034 ft 416 kts 220°
2026-04-21 10:44 29.71843 119.77982 36040 ft 416 kts 220°
2026-04-21 10:44 29.67032 119.74255 36042 ft 417 kts 220°
2026-04-21 10:45 29.62135 119.70457 36041 ft 432 kts 220°
2026-04-21 10:45 29.57241 119.66394 36038 ft 430 kts 227°
2026-04-21 10:46 29.53609 119.61139 36038 ft 417 kts 245°
2026-04-21 10:46 29.51094 119.55142 36038 ft 416 kts 250°
2026-04-21 10:47 29.48839 119.49045 36036 ft 415 kts 251°
2026-04-21 10:47 29.46594 119.42916 36033 ft 415 kts 250°
2026-04-21 10:48 29.44334 119.36816 36033 ft 416 kts 250°
2026-04-21 10:48 29.42064 119.30746 36031 ft 414 kts 250°
2026-04-21 10:49 29.39783 119.24675 36029 ft 416 kts 249°
2026-04-21 10:49 29.37473 119.18623 36027 ft 417 kts 248°
2026-04-21 10:50 29.34586 119.12824 36023 ft 422 kts 238°
2026-04-21 10:50 29.30825 119.07665 36019 ft 422 kts 232°
2026-04-21 10:51 29.26821 119.02704 36022 ft 426 kts 232°
2026-04-21 10:51 29.22790 118.97738 36019 ft 424 kts 232°
2026-04-21 10:52 29.18811 118.92793 36024 ft 423 kts 232°
2026-04-21 10:52 29.14819 118.87804 36031 ft 424 kts 232°
2026-04-21 10:53 29.10823 118.82803 36028 ft 424 kts 232°
2026-04-21 10:53 29.06846 118.77824 36026 ft 425 kts 232°
2026-04-21 10:54 29.02831 118.72803 36015 ft 424 kts 232°
2026-04-21 10:54 28.98862 118.67845 36007 ft 423 kts 232°
2026-04-21 10:55 28.94873 118.62865 36007 ft 421 kts 232°
2026-04-21 10:55 28.90928 118.57948 36002 ft 420 kts 232°
2026-04-21 10:56 28.86956 118.53005 36001 ft 422 kts 232°
2026-04-21 10:56 28.83024 118.48116 35991 ft 420 kts 232°
2026-04-21 10:57 28.79063 118.43198 35991 ft 419 kts 232°
2026-04-21 10:57 28.75102 118.38285 35995 ft 422 kts 232°
2026-04-21 10:58 28.71150 118.33389 35995 ft 422 kts 231°
2026-04-21 10:58 28.67162 118.28455 35992 ft 419 kts 231°
2026-04-21 10:59 28.63217 118.23579 35990 ft 419 kts 231°
2026-04-21 10:59 28.59282 118.18722 36002 ft 419 kts 231°
2026-04-21 11:00 28.55313 118.13829 36002 ft 419 kts 231°
2026-04-21 11:00 28.51386 118.08992 35997 ft 417 kts 231°
2026-04-21 11:01 28.47443 118.04144 36001 ft 417 kts 231°
2026-04-21 11:01 28.43482 117.99277 36003 ft 420 kts 231°
2026-04-21 11:02 28.37496 117.92040 35995 ft 419 kts 231°
2026-04-21 11:02 28.33451 117.87281 36000 ft 419 kts 230°
2026-04-21 11:03 28.29372 117.82495 35995 ft 419 kts 230°
2026-04-21 11:03 28.25327 117.77741 35991 ft 420 kts 230°
2026-04-21 11:04 28.21258 117.72955 35990 ft 420 kts 231°
2026-04-21 11:04 28.17207 117.68193 35992 ft 420 kts 231°
2026-04-21 11:05 28.13152 117.63431 35999 ft 421 kts 230°
2026-04-21 11:05 28.09089 117.58660 35999 ft 420 kts 231°
2026-04-21 11:06 28.05017 117.53887 35990 ft 419 kts 231°
2026-04-21 11:06 28.00957 117.49134 35980 ft 421 kts 230°
2026-04-21 11:07 27.96873 117.44353 35978 ft 425 kts 231°
2026-04-21 11:07 27.92742 117.39523 35990 ft 421 kts 231°
2026-04-21 11:08 27.88636 117.34732 35988 ft 424 kts 230°
2026-04-21 11:08 27.84541 117.29958 35997 ft 427 kts 230°
2026-04-21 11:09 27.80401 117.25139 36006 ft 425 kts 230°
2026-04-21 11:09 27.76292 117.20361 36003 ft 426 kts 231°
2026-04-21 11:10 27.72157 117.15558 35990 ft 426 kts 231°
2026-04-21 11:10 27.68024 117.10768 36000 ft 428 kts 230°
2026-04-21 11:11 27.63860 117.05949 35993 ft 426 kts 230°
2026-04-21 11:11 27.59683 117.01114 36004 ft 429 kts 230°
2026-04-21 11:12 27.55507 116.96289 36003 ft 430 kts 230°
2026-04-21 11:12 27.51338 116.91479 35995 ft 429 kts 230°
2026-04-21 11:13 27.47188 116.86644 35983 ft 432 kts 231°
2026-04-21 11:13 27.43029 116.81766 35971 ft 433 kts 231°
2026-04-21 11:14 27.38852 116.76874 35966 ft 433 kts 231°
2026-04-21 11:14 27.34642 116.71958 35966 ft 436 kts 231°
2026-04-21 11:15 27.30437 116.67055 35971 ft 436 kts 231°
2026-04-21 11:15 27.26241 116.62170 35968 ft 438 kts 231°
2026-04-21 11:16 27.21983 116.57213 35955 ft 437 kts 231°
2026-04-21 11:16 27.17807 116.52293 35957 ft 436 kts 232°
2026-04-21 11:17 27.13657 116.47254 35962 ft 440 kts 233°
2026-04-21 11:17 27.09503 116.42195 35969 ft 440 kts 232°
2026-04-21 11:18 27.05322 116.37122 35968 ft 441 kts 232°
2026-04-21 11:18 27.01166 116.32093 35970 ft 442 kts 232°
2026-04-21 11:19 26.96972 116.27022 35964 ft 443 kts 232°
2026-04-21 11:19 26.92766 116.21955 35965 ft 444 kts 232°
2026-04-21 11:20 26.88549 116.16856 35962 ft 445 kts 233°
2026-04-21 11:20 26.84377 116.11775 35962 ft 442 kts 233°
2026-04-21 11:21 26.80210 116.06697 35956 ft 444 kts 233°
2026-04-21 11:21 26.76014 116.01590 35959 ft 444 kts 233°
2026-04-21 11:22 26.71849 115.96532 35957 ft 444 kts 233°
2026-04-21 11:22 26.67659 115.91454 35961 ft 444 kts 233°
2026-04-21 11:23 26.63486 115.86407 35966 ft 443 kts 233°
2026-04-21 11:23 26.59275 115.81316 35958 ft 444 kts 233°
2026-04-21 11:24 26.55099 115.76276 35952 ft 445 kts 233°
2026-04-21 11:24 26.50884 115.71191 35945 ft 444 kts 233°
2026-04-21 11:25 26.46684 115.66135 35956 ft 445 kts 233°
2026-04-21 11:25 26.42484 115.61079 35951 ft 443 kts 233°
2026-04-21 11:26 26.38293 115.56038 35957 ft 443 kts 233°
2026-04-21 11:26 26.34106 115.51011 35971 ft 445 kts 233°
2026-04-21 11:27 26.29887 115.45954 35967 ft 445 kts 234°
2026-04-21 11:27 26.25669 115.40904 35959 ft 443 kts 234°
2026-04-21 11:28 26.21476 115.35889 35957 ft 444 kts 234°
2026-04-21 11:28 26.17267 115.30859 35951 ft 444 kts 233°
2026-04-21 11:29 26.13062 115.25841 35940 ft 443 kts 233°
2026-04-21 11:29 26.08880 115.20854 35939 ft 442 kts 233°
2026-04-21 11:30 26.04688 115.15864 35944 ft 442 kts 234°
2026-04-21 11:30 26.00492 115.10868 35947 ft 442 kts 233°
2026-04-21 11:31 25.96296 115.05881 35967 ft 442 kts 233°
2026-04-21 11:31 25.92110 115.00909 35977 ft 441 kts 233°
2026-04-21 11:32 25.87914 114.95936 35979 ft 442 kts 234°
2026-04-21 11:32 25.83650 114.91006 35976 ft 444 kts 230°
2026-04-21 11:33 25.78406 114.87111 35969 ft 467 kts 209°
2026-04-21 11:33 25.72127 114.85084 35965 ft 474 kts 200°
2026-04-21 11:34 25.65655 114.83519 35954 ft 475 kts 199°
2026-04-21 11:34 25.59182 114.82023 35946 ft 475 kts 199°
2026-04-21 11:35 25.52667 114.80479 35949 ft 473 kts 199°
2026-04-21 11:35 25.46240 114.78919 35950 ft 474 kts 199°
2026-04-21 11:36 25.39769 114.77329 35948 ft 473 kts 199°
2026-04-21 11:36 25.33329 114.75741 35950 ft 472 kts 199°
2026-04-21 11:37 25.26915 114.74156 35951 ft 474 kts 199°
2026-04-21 11:37 25.20444 114.72559 35950 ft 474 kts 199°
2026-04-21 11:38 25.14041 114.70983 35965 ft 472 kts 199°
2026-04-21 11:38 25.07569 114.69390 35977 ft 473 kts 199°
2026-04-21 11:39 25.01185 114.67821 35986 ft 472 kts 199°
2026-04-21 11:39 24.94746 114.66242 35997 ft 471 kts 199°
2026-04-21 11:40 24.88327 114.64667 36002 ft 471 kts 199°
2026-04-21 11:40 24.81959 114.63108 35998 ft 470 kts 199°
2026-04-21 11:41 24.75534 114.61528 35998 ft 470 kts 199°
2026-04-21 11:41 24.69312 114.59433 36002 ft 463 kts 208°
2026-04-21 11:42 24.63587 114.56332 36011 ft 458 kts 215°
2026-04-21 11:42 24.58044 114.52828 36021 ft 457 kts 217°
2026-04-21 11:43 24.52569 114.49284 36031 ft 457 kts 216°
2026-04-21 11:43 24.47095 114.45766 36033 ft 456 kts 216°
2026-04-21 11:44 24.41588 114.42263 36021 ft 457 kts 216°
2026-04-21 11:44 24.36095 114.38797 36019 ft 458 kts 216°
2026-04-21 11:45 24.30547 114.35313 36021 ft 458 kts 216°
2026-04-21 11:45 24.25001 114.31840 36030 ft 457 kts 215°
2026-04-21 11:46 24.19492 114.28397 36036 ft 457 kts 215°
2026-04-21 11:46 24.13942 114.24929 36040 ft 457 kts 215°
2026-04-21 11:47 24.08412 114.21476 36039 ft 458 kts 215°
2026-04-21 11:47 24.02879 114.18023 36044 ft 458 kts 215°
2026-04-21 11:48 23.97326 114.14562 36030 ft 455 kts 215°
2026-04-21 11:48 23.94595 114.12865 35862 ft 445 kts 214°
2026-04-21 11:48 23.91931 114.11210 35280 ft 442 kts 214°
2026-04-21 11:49 23.89243 114.09538 34597 ft 440 kts 215°
2026-04-21 11:49 23.86591 114.07887 33972 ft 437 kts 214°
2026-04-21 11:49 23.83963 114.06252 33441 ft 432 kts 214°
2026-04-21 11:49 23.81368 114.04639 32881 ft 427 kts 214°
2026-04-21 11:50 23.78804 114.03046 32346 ft 424 kts 214°
2026-04-21 11:50 23.76270 114.01473 32172 ft 411 kts 214°
2026-04-21 11:50 23.73826 113.99960 31813 ft 404 kts 214°
2026-04-21 11:50 23.71413 113.98462 31375 ft 400 kts 214°
2026-04-21 11:51 23.68978 113.96949 30882 ft 396 kts 214°
2026-04-21 11:51 23.66616 113.95481 30400 ft 393 kts 214°
2026-04-21 11:51 23.64233 113.94003 29966 ft 388 kts 214°
2026-04-21 11:51 23.61923 113.92570 29475 ft 385 kts 214°
2026-04-21 11:52 23.59601 113.91131 28985 ft 382 kts 214°
2026-04-21 11:52 23.57286 113.89696 28515 ft 378 kts 214°
2026-04-21 11:52 23.55021 113.88293 28023 ft 375 kts 214°
2026-04-21 11:52 23.52765 113.86923 27855 ft 364 kts 213°
2026-04-21 11:53 23.50500 113.85713 27493 ft 362 kts 208°
2026-04-21 11:53 23.48140 113.84767 26949 ft 365 kts 203°
2026-04-21 11:53 23.45715 113.83984 26440 ft 365 kts 201°
2026-04-21 11:53 23.43273 113.83268 25960 ft 364 kts 200°
2026-04-21 11:54 23.40836 113.82571 25500 ft 361 kts 200°
2026-04-21 11:54 23.38410 113.81874 25007 ft 360 kts 200°
2026-04-21 11:54 23.35975 113.81165 24514 ft 358 kts 200°
2026-04-21 11:54 23.33579 113.80459 24083 ft 355 kts 200°
2026-04-21 11:55 23.31199 113.79751 23585 ft 354 kts 200°
2026-04-21 11:55 23.28826 113.79041 23104 ft 353 kts 200°
2026-04-21 11:55 23.26466 113.78332 22664 ft 351 kts 200°
2026-04-21 11:55 23.24120 113.77626 22200 ft 349 kts 200°
2026-04-21 11:56 23.21773 113.76921 21808 ft 346 kts 200°
2026-04-21 11:56 23.19462 113.76227 21397 ft 343 kts 200°
2026-04-21 11:56 23.17176 113.75540 21011 ft 340 kts 200°
2026-04-21 11:56 23.14881 113.74850 20536 ft 340 kts 200°
2026-04-21 11:57 23.12609 113.74166 20071 ft 339 kts 200°
2026-04-21 11:57 23.10347 113.73486 19603 ft 338 kts 200°
2026-04-21 11:57 23.08098 113.72811 19137 ft 337 kts 200°
2026-04-21 11:57 23.05812 113.72124 18660 ft 336 kts 200°
2026-04-21 11:58 23.03568 113.71451 18191 ft 334 kts 200°
2026-04-21 11:58 23.01321 113.70777 17720 ft 333 kts 200°
2026-04-21 11:58 22.99088 113.70106 17249 ft 331 kts 200°
2026-04-21 11:58 22.96882 113.69445 16786 ft 330 kts 200°
2026-04-21 11:59 22.94663 113.68780 16318 ft 328 kts 200°
2026-04-21 11:59 22.92473 113.68124 15858 ft 326 kts 200°
2026-04-21 11:59 22.90294 113.67472 15386 ft 324 kts 200°
2026-04-21 11:59 22.88149 113.66830 14921 ft 321 kts 200°
2026-04-21 12:00 22.85977 113.66171 14371 ft 322 kts 200°
2026-04-21 12:00 22.83839 113.65517 13786 ft 323 kts 200°
2026-04-21 12:00 22.81655 113.64846 13192 ft 323 kts 200°
2026-04-21 12:00 22.79501 113.64188 12601 ft 323 kts 200°
2026-04-21 12:01 22.77327 113.63524 12004 ft 324 kts 199°
2026-04-21 12:01 22.75171 113.62866 11408 ft 324 kts 199°
2026-04-21 12:01 22.72998 113.62204 10815 ft 324 kts 199°
2026-04-21 12:01 22.70825 113.61543 10215 ft 324 kts 199°
2026-04-21 12:02 22.68655 113.60882 9620 ft 324 kts 198°
2026-04-21 12:02 22.64338 113.59567 8437 ft 323 kts 198°
2026-04-21 12:02 22.62174 113.58909 7842 ft 323 kts 197°
2026-04-21 12:03 22.60002 113.58250 7239 ft 322 kts 197°
2026-04-21 12:03 22.57870 113.57603 6905 ft 312 kts 197°
2026-04-21 12:03 22.55842 113.56988 6885 ft 293 kts 197°
2026-04-21 12:03 22.53927 113.56469 6885 ft 275 kts 192°
2026-04-21 12:04 22.52071 113.56382 6882 ft 261 kts 174°
2026-04-21 12:04 22.50345 113.56876 6790 ft 251 kts 164°
2026-04-21 12:04 22.48709 113.57510 6522 ft 248 kts 163°
2026-04-21 12:04 22.47084 113.58117 6213 ft 246 kts 165°
2026-04-21 12:05 22.45477 113.58668 5875 ft 239 kts 165°
2026-04-21 12:05 22.43898 113.59183 5567 ft 229 kts 166°
2026-04-21 12:05 22.42393 113.59666 5260 ft 222 kts 166°
2026-04-21 12:05 22.40944 113.60133 4953 ft 215 kts 166°
2026-04-21 12:06 22.39515 113.60596 4639 ft 210 kts 165°
2026-04-21 12:06 22.38133 113.61044 4321 ft 205 kts 165°
2026-04-21 12:06 22.36782 113.61482 4016 ft 201 kts 165°
2026-04-21 12:06 22.35454 113.61906 3706 ft 198 kts 165°
2026-04-21 12:07 22.34133 113.62321 3392 ft 196 kts 165°
2026-04-21 12:07 22.32858 113.62721 3118 ft 185 kts 165°
2026-04-21 12:07 22.31652 113.63100 2809 ft 177 kts 165°
2026-04-21 12:07 22.30470 113.63470 2565 ft 175 kts 165°
2026-04-21 12:08 22.29302 113.63837 2332 ft 167 kts 165°
2026-04-21 12:08 22.28211 113.64088 2095 ft 155 kts 177°
2026-04-21 12:08 22.27207 113.63968 1956 ft 136 kts 194°
2026-04-21 12:08 22.26353 113.63632 1781 ft 127 kts 202°
2026-04-21 12:09 22.25598 113.63133 1795 ft 127 kts 215°
2026-04-21 12:09 22.24977 113.62442 1798 ft 130 kts 227°
2026-04-21 12:09 22.24434 113.61648 1800 ft 129 kts 229°
2026-04-21 12:09 22.23922 113.60863 1598 ft 131 kts 230°
2026-04-21 12:10 22.23373 113.60068 1447 ft 128 kts 228°
2026-04-21 12:10 22.22817 113.59315 1265 ft 130 kts 226°
2026-04-21 12:10 22.22235 113.58575 1123 ft 129 kts 223°
2026-04-21 12:10 22.21527 113.57978 940 ft 130 kts 205°
2026-04-21 12:11 22.20684 113.57670 804 ft 125 kts 191°
2026-04-21 12:11 22.19806 113.57610 596 ft 128 kts 177°
2026-04-21 12:11 22.18937 113.57764 438 ft 128 kts 167°
2026-04-21 12:11 22.18076 113.58040 266 ft 128 kts 165°
2026-04-21 12:12 22.17225 113.58326 134 ft 128 kts 164°
2026-04-21 12:12 22.16396 113.58619 78 ft 123 kts 164°
2026-04-21 12:12 22.15537 113.58954 430 ft 137 kts 160°
2026-04-21 12:12 22.14746 113.59222 1279 ft 120 kts 165°
2026-04-21 12:13 22.13894 113.59518 1686 ft 134 kts 163°
2026-04-21 12:13 22.12963 113.59856 2235 ft 153 kts 162°
2026-04-21 12:13 22.11882 113.60257 2615 ft 173 kts 162°
2026-04-21 12:13 22.10680 113.60701 2615 ft 182 kts 162°
2026-04-21 12:14 22.09481 113.61142 2601 ft 183 kts 162°
2026-04-21 12:14 22.08282 113.61583 2599 ft 182 kts 162°
2026-04-21 12:14 22.07064 113.62013 2600 ft 182 kts 165°
2026-04-21 12:14 22.05819 113.62308 2600 ft 182 kts 172°
2026-04-21 12:15 22.04554 113.62427 2600 ft 182 kts 178°
2026-04-21 12:15 22.03287 113.62405 2601 ft 182 kts 183°
2026-04-21 12:15 22.02029 113.62252 2589 ft 183 kts 189°
2026-04-21 12:15 22.00772 113.61929 2602 ft 182 kts 196°
2026-04-21 12:16 21.99577 113.61508 2605 ft 182 kts 197°
2026-04-21 12:16 21.98351 113.61083 2604 ft 183 kts 196°
2026-04-21 12:16 21.97141 113.60685 2601 ft 181 kts 195°
2026-04-21 12:16 21.95930 113.60311 2601 ft 182 kts 191°
2026-04-21 12:17 21.94678 113.60297 2600 ft 180 kts 164°
2026-04-21 12:17 21.93592 113.60986 2603 ft 185 kts 139°
2026-04-21 12:17 21.92803 113.62105 2605 ft 189 kts 121°
2026-04-21 12:17 21.92477 113.63475 2600 ft 196 kts 90°
2026-04-21 12:18 21.92968 113.64867 2602 ft 206 kts 55°
2026-04-21 12:18 21.94076 113.65865 2601 ft 211 kts 28°
2026-04-21 12:18 21.95497 113.66175 2599 ft 212 kts 351°
2026-04-21 12:18 21.96856 113.65568 2606 ft 210 kts 323°
2026-04-21 12:19 21.98025 113.64644 2599 ft 210 kts 320°
2026-04-21 12:19 21.99210 113.63711 2601 ft 210 kts 322°
2026-04-21 12:19 22.00424 113.62800 2601 ft 210 kts 323°
2026-04-21 12:19 22.01623 113.61916 2601 ft 211 kts 323°
2026-04-21 12:20 22.02838 113.61020 2601 ft 210 kts 323°
2026-04-21 12:20 22.04044 113.60125 2603 ft 211 kts 323°
2026-04-21 12:20 22.05293 113.59198 2701 ft 230 kts 323°
2026-04-21 12:20 22.06621 113.58212 3741 ft 235 kts 322°
2026-04-21 12:21 22.07892 113.57276 5091 ft 222 kts 322°
2026-04-21 12:21 22.09136 113.56355 5958 ft 224 kts 321°
2026-04-21 12:21 22.10466 113.55360 5925 ft 232 kts 321°
2026-04-21 12:21 22.11759 113.54404 5900 ft 220 kts 321°
2026-04-21 12:22 22.13020 113.53474 5902 ft 218 kts 321°
2026-04-21 12:22 22.14275 113.52540 5902 ft 218 kts 321°
2026-04-21 12:22 22.15526 113.51610 5901 ft 218 kts 321°
2026-04-21 12:22 22.16781 113.50678 5899 ft 218 kts 321°
2026-04-21 12:23 22.18042 113.49741 5897 ft 219 kts 321°
2026-04-21 12:23 22.19293 113.48811 5898 ft 219 kts 321°
2026-04-21 12:23 22.20557 113.47896 5899 ft 219 kts 325°
2026-04-21 12:23 22.21985 113.47297 5895 ft 226 kts 352°
2026-04-21 12:24 22.23547 113.47562 5895 ft 229 kts 26°
2026-04-21 12:24 22.24908 113.48449 5895 ft 226 kts 35°
2026-04-21 12:24 22.26224 113.49384 5898 ft 227 kts 34°
2026-04-21 12:24 22.27549 113.50291 5896 ft 226 kts 33°
2026-04-21 12:25 22.28892 113.51196 5899 ft 227 kts 33°
2026-04-21 12:25 22.30247 113.52107 5895 ft 226 kts 33°
2026-04-21 12:25 22.31589 113.53014 5894 ft 227 kts 33°
2026-04-21 12:25 22.32921 113.53914 5896 ft 227 kts 33°
2026-04-21 12:26 22.34264 113.54822 5897 ft 225 kts 33°
2026-04-21 12:26 22.35547 113.55804 5901 ft 224 kts 45°
2026-04-21 12:26 22.36384 113.57164 5895 ft 219 kts 80°
2026-04-21 12:26 22.36494 113.58768 5901 ft 212 kts 98°
2026-04-21 12:27 22.36226 113.60301 5895 ft 205 kts 118°
2026-04-21 12:27 22.35445 113.61552 5895 ft 199 kts 141°
2026-04-21 12:27 22.34312 113.62334 5873 ft 187 kts 164°
2026-04-21 12:27 22.33101 113.62705 5624 ft 174 kts 169°
2026-04-21 12:28 22.31950 113.63032 5324 ft 165 kts 167°
2026-04-21 12:28 22.30883 113.63364 5066 ft 154 kts 167°
2026-04-21 12:28 22.29900 113.63676 4881 ft 137 kts 166°
2026-04-21 12:28 22.29066 113.63933 4744 ft 117 kts 171°
2026-04-21 12:29 22.28252 113.63914 4303 ft 122 kts 196°
2026-04-21 12:29 22.27498 113.63496 3905 ft 124 kts 212°
2026-04-21 12:29 22.26817 113.62910 3499 ft 126 kts 213°
2026-04-21 12:29 22.26125 113.62361 3167 ft 123 kts 210°
2026-04-21 12:30 22.25435 113.61844 2912 ft 122 kts 210°
2026-04-21 12:30 22.24719 113.61306 2755 ft 123 kts 210°
2026-04-21 12:30 22.23999 113.60754 2484 ft 129 kts 211°
2026-04-21 12:30 22.23299 113.60180 2354 ft 123 kts 213°
2026-04-21 12:31 22.22610 113.59605 2095 ft 126 kts 210°
2026-04-21 12:31 22.21871 113.59087 1897 ft 125 kts 208°
2026-04-21 12:31 22.21127 113.58592 1644 ft 126 kts 208°
2026-04-21 12:31 22.20370 113.58077 1322 ft 132 kts 210°
2026-04-21 12:32 22.19546 113.57776 1092 ft 125 kts 183°
2026-04-21 12:32 22.18670 113.57895 812 ft 125 kts 167°
2026-04-21 12:32 22.17838 113.58151 510 ft 126 kts 165°
2026-04-21 12:32 22.16995 113.58424 273 ft 124 kts 165°
2026-04-21 12:33 22.16180 113.58701 89 ft 122 kts 165°
2026-04-21 12:33 22.15404 113.58996 21 ft 118 kts 161°
2026-04-21 12:33 22.14606 113.59306 590 ft 120 kts 162°
2026-04-21 12:33 22.13799 113.59643 860 ft 124 kts 162°
2026-04-21 12:34 22.12997 113.59891 1312 ft 126 kts 169°
2026-04-21 12:34 22.12079 113.60085 1784 ft 150 kts 168°
2026-04-21 12:34 22.10968 113.60356 1813 ft 169 kts 168°
2026-04-21 12:34 22.09788 113.60638 1805 ft 172 kts 168°
2026-04-21 12:35 22.08618 113.60904 1803 ft 174 kts 169°
2026-04-21 12:35 22.07400 113.61179 1830 ft 192 kts 168°
2026-04-21 12:35 22.06030 113.61490 2744 ft 207 kts 169°
2026-04-21 12:35 22.04703 113.61792 4070 ft 196 kts 169°
2026-04-21 12:36 22.03309 113.62009 4280 ft 206 kts 181°
2026-04-21 12:36 22.01995 113.61567 4212 ft 196 kts 216°
2026-04-21 12:36 22.01244 113.60400 4216 ft 190 kts 251°
2026-04-21 12:36 22.01331 113.58971 4222 ft 201 kts 289°
2026-04-21 12:37 22.02250 113.57791 4220 ft 211 kts 325°
2026-04-21 12:37 22.03607 113.57135 4221 ft 213 kts 337°
2026-04-21 12:37 22.04996 113.56583 4219 ft 213 kts 337°
2026-04-21 12:37 22.06391 113.56024 4220 ft 213 kts 337°
2026-04-21 12:38 22.07788 113.55467 4218 ft 214 kts 337°
2026-04-21 12:38 22.09189 113.54908 4219 ft 213 kts 337°
2026-04-21 12:38 22.10543 113.54285 4217 ft 215 kts 322°
2026-04-21 12:38 22.11683 113.53163 4215 ft 226 kts 309°
2026-04-21 12:39 22.12863 113.52000 4208 ft 230 kts 320°
2026-04-21 12:39 22.14230 113.51067 4209 ft 233 kts 328°
2026-04-21 12:39 22.15672 113.50266 4211 ft 233 kts 331°
2026-04-21 12:39 22.17132 113.49480 4216 ft 234 kts 330°
2026-04-21 12:40 22.18586 113.48683 4207 ft 232 kts 330°
2026-04-21 12:40 22.20015 113.47885 4220 ft 233 kts 330°
2026-04-21 12:40 22.21534 113.47241 4217 ft 236 kts 348°
2026-04-21 12:40 22.23169 113.47337 4221 ft 238 kts 22°
2026-04-21 12:41 22.24609 113.48184 4226 ft 235 kts 36°
2026-04-21 12:41 22.25969 113.49173 4218 ft 235 kts 36°
2026-04-21 12:41 22.27394 113.50177 4376 ft 258 kts 34°
2026-04-21 12:41 22.28952 113.51244 4589 ft 276 kts 34°
2026-04-21 12:42 22.30529 113.52306 4779 ft 256 kts 33°
2026-04-21 12:42 22.31979 113.53275 4999 ft 236 kts 33°
2026-04-21 12:42 22.33380 113.54220 5247 ft 239 kts 34°
2026-04-21 12:42 22.34765 113.55170 5457 ft 226 kts 36°
2026-04-21 12:43 22.35928 113.56274 5349 ft 221 kts 58°
2026-04-21 12:43 22.36449 113.57783 5085 ft 211 kts 91°
2026-04-21 12:43 22.36419 113.59334 4821 ft 208 kts 101°
2026-04-21 12:43 22.36027 113.60799 4522 ft 202 kts 124°
2026-04-21 12:44 22.35107 113.61893 4279 ft 192 kts 151°
2026-04-21 12:44 22.33925 113.62433 4167 ft 176 kts 166°
2026-04-21 12:44 22.32813 113.62760 4029 ft 157 kts 166°
2026-04-21 12:44 22.31798 113.63074 3863 ft 139 kts 166°
2026-04-21 12:45 22.30932 113.63349 3688 ft 123 kts 166°
2026-04-21 12:45 22.30115 113.63607 3315 ft 123 kts 166°
2026-04-21 12:45 22.29299 113.63864 2946 ft 122 kts 165°
2026-04-21 12:45 22.28470 113.63984 2576 ft 122 kts 187°
2026-04-21 12:46 22.27702 113.63638 2484 ft 120 kts 210°
2026-04-21 12:46 22.27014 113.63064 2521 ft 126 kts 213°
2026-04-21 12:46 22.26304 113.62498 2367 ft 126 kts 211°
2026-04-21 12:46 22.25591 113.61961 2189 ft 124 kts 211°
2026-04-21 12:47 22.24884 113.61430 2039 ft 125 kts 211°
2026-04-21 12:47 22.24176 113.60895 1894 ft 124 kts 211°
2026-04-21 12:47 22.23469 113.60363 1763 ft 124 kts 210°
2026-04-21 12:47 22.22759 113.59834 1626 ft 124 kts 211°
2026-04-21 12:48 22.22042 113.59304 1479 ft 125 kts 211°
2026-04-21 12:48 22.21323 113.58770 1354 ft 124 kts 212°
2026-04-21 12:48 22.20610 113.58228 1197 ft 126 kts 212°
2026-04-21 12:48 22.19825 113.57829 1040 ft 127 kts 193°
2026-04-21 12:49 22.18950 113.57752 903 ft 125 kts 176°
2026-04-21 12:49 22.18092 113.57975 649 ft 125 kts 163°
2026-04-21 12:49 22.17276 113.58283 366 ft 126 kts 163°
2026-04-21 12:49 22.16452 113.58587 151 ft 122 kts 163°
2026-04-21 12:50 22.15667 113.58878 22 ft 115 kts 163°
2026-04-21 12:50 22.15005 113.59116 12 ft 67 kts 159°
2026-04-21 12:50 22.14822 113.59184 12 ft 0 kts 162°
2026-04-21 12:50 22.14792 113.59193 12 ft 10 kts 162°
2026-04-21 12:51 22.14699 113.59228 12 ft 15 kts 161°
2026-04-21 12:51 22.14608 113.59212 12 ft 14 kts 235°
2026-04-21 12:51 22.14578 113.59141 12 ft 0 kts 256°
2026-04-21 12:52 22.14580 113.59107 12 ft 7 kts 294°
2026-04-21 12:52 22.14645 113.59058 12 ft 15 kts 338°
2026-04-21 12:53 22.14748 113.58997 12 ft 17 kts 308°
2026-04-21 12:53 22.14820 113.58885 10 ft 18 kts 303°
2026-04-21 12:53 22.14894 113.58765 9 ft 19 kts 303°
2026-04-21 12:53 22.14972 113.58638 9 ft 20 kts 304°
2026-04-21 12:54 22.15050 113.58511 9 ft 20 kts 304°
2026-04-21 12:54 22.15131 113.58383 9 ft 20 kts 302°
2026-04-21 12:54 22.15210 113.58253 9 ft 20 kts 303°
2026-04-21 12:54 22.15291 113.58122 9 ft 21 kts 303°
2026-04-21 12:55 22.15374 113.57989 10 ft 21 kts 303°
2026-04-21 12:55 22.15453 113.57861 12 ft 20 kts 303°
2026-04-21 12:55 22.15531 113.57735 13 ft 19 kts 304°
2026-04-21 12:55 22.15604 113.57616 17 ft 17 kts 297°
2026-04-21 12:56 22.15607 113.57514 20 ft 11 kts 318°
2026-04-21 12:56 22.15617 113.57505 21 ft 2 kts 300°
2026-04-21 12:56 22.15618 113.57529 20 ft 3 kts 245°
2026-04-21 12:56 22.15620 113.57535 20 ft 1 kts 239°
2026-04-21 12:57 22.15589 113.57498 20 ft 12 kts 225°
2026-04-21 12:57 22.15594 113.57430 22 ft 10 kts 316°
2026-04-21 12:57 22.15629 113.57405 24 ft 0 kts 330°